Weather History for PASN - March, 2013

Change the Weather History Date:

Tuesday, March 5, 2013

  Actual Average Record
Temperature  
Mean Temperature 29 °F 25 °F  
Max Temperature 32 °F 29 °F 40 °F (1966)
Min Temperature 25 °F 20 °F -9 °F (2010)
Degree Days  
Heating Degree Days 36 40  
Month to date heating degree days 187 200  
Since 1 July heating degree days 7646 7119  
Cooling Degree Days 0    
Month to date cooling degree days 0  
Year to date cooling degree days 0  
Moisture  
Dew Point 29 °F    
Average Humidity 0    
Maximum Humidity 0    
Minimum Humidity 0    
Precipitation  
Precipitation 0.03 in 0.04 in 0.49 in (1894)
Month to date precipitation 0.55 0.18  
Year to date precipitation 3.40 3.06  
Snow  
Snow 0.30 in 0.20 in 1.80 in (1990)
Month to date snowfall 5.5 1.3  
Since 1 July snowfall 49.0 46.3  
Snow Depth 25.00 in    
Sea Level Pressure  
Sea Level Pressure 29.55 in    
Wind  
Wind Speed 9 mph (South)    
Max Wind Speed 20 mph    
Max Gust Speed 24 mph    
Visibility 6 miles    
Events Snow    
T = Trace of Precipitation, MM = Missing Value Source: NWS Daily Summary

Daily Weather History Graph

Daily Weather History Graph

Search for Another Location

Airport or City:

Trip Planner

Search our weather history database for the weather conditions in past years. The results will help you decide how hot, cold, wet, or windy it might be!

Date:

Astronomy

Mar. 05, 2013 Rise Set
Actual Time 9:02 AM AKST 8:03 PM AKST
Civil Twilight 8:23 AM AKST 8:41 PM AKST
Nautical Twilight 7:39 AM AKST 9:26 PM AKST
Astronomical Twilight 6:54 AM AKST 10:11 PM AKST
Moon 5:23 AM AKST (3/5) 1:00 PM AKST (3/5)
Length of Visible Light 12h 17m
Length of Day
11h 01m
Last Quarter, 39% of the Moon is Illuminated
Mar 5
Last Quarter
Mar 11
New
Mar 19
First Quarter
Mar 27
Full
Apr 2
Last Quarter

Hourly Weather History & Observations

Time (AKST) Temp. Windchill Dew Point Humidity Pressure Visibility Wind Dir Wind Speed Gust Speed Precip Events Conditions
12:53 AM 30.0 °F 21.7 °F 28.9 °F 96% 29.55 in 10.0 mi South 9.2 mph - N/A   Clear
1:53 AM 28.9 °F 23.9 °F 28.0 °F 96% 29.56 in 9.0 mi SSW 4.6 mph - N/A   Clear
2:53 AM 28.0 °F 20.0 °F 27.0 °F 96% 29.56 in 10.0 mi South 8.1 mph - N/A   Clear
3:53 AM 28.0 °F 19.3 °F 27.0 °F 96% 29.57 in 8.0 mi South 9.2 mph - N/A   Clear
4:53 AM 30.0 °F 21.1 °F 28.0 °F 92% 29.57 in 10.0 mi South 10.4 mph - N/A   Mostly Cloudy
5:02 AM 28.4 °F 19.1 °F 28.4 °F 100% 29.56 in 10.0 mi South 10.4 mph - N/A   Mostly Cloudy
5:13 AM 28.4 °F 19.1 °F 28.4 °F 100% 29.57 in 10.0 mi South 10.4 mph - N/A   Scattered Clouds
5:53 AM 28.0 °F 19.3 °F 27.0 °F 96% 29.57 in 10.0 mi South 9.2 mph - N/A   Partly Cloudy
6:53 AM 27.0 °F 19.5 °F 26.1 °F 96% 29.58 in 10.0 mi SSE 6.9 mph - N/A   Clear
7:53 AM 27.0 °F 18.7 °F 26.1 °F 96% 29.57 in 7.0 mi South 8.1 mph - N/A   Clear
8:53 AM 26.1 °F 17.6 °F 26.1 °F 100% 29.57 in 6.0 mi SSE 8.1 mph - N/A   Clear
9:53 AM 28.0 °F 18.6 °F 27.0 °F 96% 29.56 in 8.0 mi SSE 10.4 mph - N/A   Clear
10:53 AM 30.0 °F 20.0 °F 30.0 °F 100% 29.57 in 10.0 mi SSW 12.7 mph - N/A   Overcast
11:53 AM 30.0 °F 22.4 °F 28.0 °F 92% 29.57 in 9.0 mi SSE 8.1 mph - N/A   Mostly Cloudy
12:51 PM 30.2 °F 23.4 °F 28.4 °F 93% 29.56 in 1.8 mi South 6.9 mph - 0.00 in Snow Light Snow
12:53 PM 30.9 °F 22.2 °F 30.0 °F 96% 29.56 in 1.2 mi SSE 10.4 mph - 0.01 in Snow Light Snow
12:56 PM 30.2 °F 19.8 °F 30.2 °F 100% 29.55 in 1.0 mi South 13.8 mph - 0.00 in Snow Light Snow
1:03 PM 30.2 °F 22.6 °F 30.2 °F 100% 29.55 in 1.8 mi South 8.1 mph - 0.00 in Snow Light Snow
1:07 PM 30.2 °F 22.6 °F 30.2 °F 100% 29.55 in 3.0 mi SSE 8.1 mph - 0.00 in Snow Light Snow
1:53 PM 30.9 °F 22.2 °F 30.9 °F 100% 29.55 in 7.0 mi SSE 10.4 mph - 0.00 in   Overcast
2:04 PM 32.0 °F 24.2 °F 30.2 °F 93% 29.54 in 7.0 mi SSE 9.2 mph - N/A   Overcast
2:12 PM 32.0 °F 24.2 °F 30.2 °F 93% 29.54 in 3.0 mi SSE 9.2 mph - 0.00 in Snow Light Snow
2:15 PM 32.0 °F 23.6 °F 30.2 °F 93% 29.54 in 2.5 mi SSE 10.4 mph - 0.00 in Snow Light Snow
2:18 PM 32.0 °F 23.6 °F 30.2 °F 93% 29.54 in 1.8 mi SSE 10.4 mph - 0.00 in Snow Light Snow
2:32 PM 30.2 °F 20.2 °F 30.2 °F 100% 29.54 in 3.0 mi SSE 12.7 mph - 0.00 in Snow Light Snow
2:49 PM 30.2 °F 20.2 °F 30.2 °F 100% 29.53 in 3.0 mi SSE 12.7 mph - 0.00 in Snow Light Snow
2:53 PM 30.9 °F 21.2 °F 30.0 °F 96% 29.54 in 3.0 mi SSE 12.7 mph - 0.00 in Snow Light Snow
3:15 PM 30.2 °F 20.2 °F 30.2 °F 100% 29.53 in 1.5 mi SSW 12.7 mph - 0.00 in Snow Light Snow
3:48 PM 30.2 °F 22.6 °F 30.2 °F 100% 29.53 in 2.0 mi SSW 8.1 mph - 0.02 in Snow Light Snow
3:53 PM 30.0 °F 22.4 °F 30.0 °F 100% 29.54 in 2.0 mi South 8.1 mph - 0.02 in Snow Light Snow
4:03 PM 30.2 °F 23.4 °F 30.2 °F 100% 29.52 in 1.5 mi South 6.9 mph - 0.00 in Snow Light Snow
4:10 PM 30.2 °F 23.4 °F 30.2 °F 100% 29.52 in 3.0 mi SSE 6.9 mph - 0.00 in Snow Light Snow
4:28 PM 30.2 °F 24.3 °F 30.2 °F 100% 29.52 in 6.0 mi South 5.8 mph - 0.00 in   Overcast
4:39 PM 28.4 °F 21.2 °F 28.4 °F 100% 29.52 in 7.0 mi South 6.9 mph - 0.00 in   Mostly Cloudy
4:53 PM 28.9 °F 21.1 °F 28.9 °F 100% 29.52 in 9.0 mi South 8.1 mph - 0.00 in   Mostly Cloudy
5:04 PM 30.2 °F 21.9 °F 28.4 °F 93% 29.52 in 10.0 mi South 9.2 mph - N/A   Scattered Clouds
5:53 PM 28.9 °F 21.9 °F 28.0 °F 96% 29.53 in 10.0 mi South 6.9 mph - N/A   Clear
6:53 PM 28.0 °F 20.0 °F 27.0 °F 96% 29.53 in 10.0 mi SSW 8.1 mph - N/A   Clear
7:53 PM 26.1 °F 18.4 °F 25.0 °F 96% 29.53 in 10.0 mi South 6.9 mph - N/A   Clear
8:33 PM 28.4 °F 18.5 °F 26.6 °F 93% 29.54 in 10.0 mi SW 11.5 mph - N/A   Partly Cloudy
8:53 PM 27.0 °F 18.7 °F 26.1 °F 96% 29.55 in 8.0 mi SSW 8.1 mph - N/A   Scattered Clouds
9:53 PM 28.9 °F 18.2 °F 28.0 °F 96% 29.56 in 10.0 mi South 13.8 mph - 0.00 in   Clear
10:53 PM 30.0 °F 19.1 °F 27.0 °F 88% 29.56 in 10.0 mi SSW 15.0 mph - N/A   Partly Cloudy
11:53 PM 28.9 °F 19.8 °F 26.1 °F 89% 29.57 in 10.0 mi South 10.4 mph - N/A   Partly Cloudy